INTERCOSMOS 25

Last updated on Sun Aug 09 2026 00:02:09 GMT+0000 (Coordinated Universal Time)

1 21819U 91086A 26220.44378047 .00000693 00000+0 12972-3 0 9995 2 21819 82.6001 218.1889 1485521 149.6298 220.0050 12.12274631515078
UTC large
Height (km)
Speed (km/s)
/
Latitude / Longitude
Inclination (degrees)
Orbital Period (minutes)
Azimuth
Elevation
Range (km)
Doppler Factor

Next 0 passes for location: London (51.5072 / 0.1276)

No passes found over London.
INTERCOSMOS 25